Temp
52 52 53 53 53 52 51 51 52 52 51 51 51 51 51 51 51 51 51 51 50 50 49 49 49 49 48 48 47 47 47 47 47 47 47 47 46 45 45 45 46 46 46 46 46 46 47 47 47 47 47 48 48 48 48 49 49 49 50 50 50 50 51 50 50 50 50 50 50
52 52 53 54 54 53 52 52 52 52 52 51 51 51 51 51 51 51 51 51 50 50 50 49 49 49 48 48 48 47 47 47 47 47 47 46 46 45 45 45 45 45 45 46 46 46 46 46 47 47 47 47 47 47 47 48 48 49 49 49 49 50 50 50 50 50 50 50 50
53 53 53 53 53 53 52 51 52 52 52 52 52 51 51 50 50 50 51 51 51 50 50 49 49 49 49 48 48 48 48 47 47 47 47 47 46 46 45 44 44 45 45 45 45 45 45 46 47 47 47 46 46 46 46 47 47 48 48 48 48 49 49 49 50 50 50 50 50
52 53 53 53 52 52 52 52 52 52 52 52 52 52 51 51 50 50 49 49 50 50 50 49 49 49 49 49 48 48 48 48 48 47 47 47 46 46 45 45 44 44 44 44 44 44 45 45 45 46 46 46 46 46 46 46 46 47 47 48 48 48 48 48 49 49 49 49 49
50 51 52 52 52 52 52 52 52 51 51 52 51 51 51 51 51 50 49 48 49 49 49 49 49 49 49 49 48 48 48 48 49 48 47 47 47 46 46 46 45 44 44 43 43 44 44 44 44 44 45 45 46 46 46 46 46 46 46 47 47 47 47 48 48 48 48 48 48
48 49 50 51 51 52 52 52 52 51 51 50 50 50 51 51 51 51 50 49 49 49 49 49 49 49 49 48 48 48 47 47 47 47 47 47 47 47 46 46 45 45 44 44 43 43 43 43 44 44 44 44 44 45 46 46 46 46 46 46 46 47 47 47 47 47 47 47 47
47 48 48 49 49 50 51 51 52 51 51 50 50 50 50 51 51 51 51 51 51 50 49 49 48 47 47 47 48 47 47 47 47 47 47 47 47 47 46 46 46 45 45 44 44 44 43 43 43 43 44 44 43 44 44 45 46 46 46 46 46 46 46 47 47 47 47 47 47
47 47 47 48 48 48 48 49 50 50 50 50 50 50 50 51 51 50 50 51 51 51 50 49 47 47 46 46 47 47 47 47 47 47 47 47 47 46 46 46 45 45 45 44 44 44 44 44 44 44 43 43 43 43 43 44 44 45 45 46 46 46 46 46 46 46 46 47 47
46 47 47 47 47 47 47 47 47 47 48 49 50 50 51 50 50 50 50 50 51 52 52 51 50 48 47 46 46 46 47 47 47 47 47 47 46 46 46 45 45 44 44 44 44 44 44 43 43 43 44 44 43 43 43 43 43 43 44 44 45 45 45 46 46 46 46 46 46
45 46 46 46 46 47 47 46 46 46 46 47 49 50 51 51 51 50 50 51 52 52 52 52 52 51 49 48 47 46 46 46 47 47 47 47 47 46 46 45 45 44 44 44 44 44 43 43 43 43 43 43 43 43 43 43 43 43 43 43 44 44 45 45 46 46 46 46 46
44 45 45 45 45 46 46 45 46 46 46 46 47 47 49 51 51 51 50 51 51 51 51 52 52 51 51 50 49 47 46 46 46 46 46 47 47 47 46 46 45 44 44 44 43 43 43 43 43 43 43 43 43 43 43 43 43 43 43 43 43 44 44 44 45 46 46 46 46
43 44 44 44 45 45 45 45 45 45 45 45 45 45 46 47 48 49 49 49 49 49 50 51 51 51 51 51 51 50 49 47 46 46 45 46 47 47 47 46 46 45 44 44 43 43 43 43 43 42 42 43 43 43 42 42 42 42 42 43 43 43 43 44 44 45 46 46 46
43 43 43 43 44 44 44 44 44 45 45 45 45 45 45 46 46 46 46 47 47 48 50 49 50 50 50 51 51 51 50 49 48 47 46 46 47 47 47 47 46 46 45 44 44 43 43 43 42 42 42 42 42 42 42 42 42 42 42 42 42 43 43 43 44 44 45 45 46
42 42 42 42 42 43 43 43 44 44 44 43 44 44 45 45 45 45 45 46 47 48 48 48 48 49 49 50 50 50 50 50 49 48 48 48 47 47 47 47 47 47 46 45 44 44 43 43 42 42 42 42 42 42 42 42 42 42 42 42 42 42 42 43 43 43 43 44 45
41 41 41 41 41 42 42 42 43 43 43 43 43 44 44 44 44 44 45 45 46 47 48 48 48 48 48 49 49 49 49 49 49 49 48 48 48 48 48 48 47 47 47 47 45 44 44 43 43 43 43 43 42 43 42 42 42 42 42 42 42 42 42 42 43 43 43 43 43
40 40 40 41 41 41 41 42 42 42 42 42 43 43 43 43 43 44 44 44 45 45 45 46 47 47 48 48 48 48 48 48 48 48 48 48 48 48 48 48 48 47 47 47 47 45 45 44 44 44 43 43 43 43 43 43 42 42 42 42 42 42 42 42 42 42 42 42 43
39 39 40 40 40 40 40 41 41 42 42 42 42 42 42 42 42 43 44 44 44 44 43 43 44 45 46 47 48 48 48 46 47 48 48 48 48 48 48 48 48 47 47 47 47 46 46 45 45 44 44 44 43 43 43 43 42 42 42 43 43 43 43 43 43 43 42 42 42
38 38 39 39 39 39 40 40 40 41 41 41 41 41 42 42 42 42 42 43 43 42 42 42 43 43 43 44 45 47 47 45 46 47 48 48 47 48 48 48 48 48 48 48 47 47 46 46 46 45 44 44 44 44 43 43 43 42 42 43 43 43 43 44 44 43 43 43 43
37 38 38 38 38 39 39 40 40 40 40 40 41 41 41 41 41 41 41 41 42 42 42 42 42 42 42 42 43 44 45 44 45 45 47 47 48 48 48 48 48 48 48 48 47 47 47 47 47 46 45 44 44 44 43 43 42 42 42 42 43 43 43 44 44 44 44 43 43
36 37 37 38 38 38 38 39 39 39 40 40 40 40 40 40 40 40 40 40 41 41 41 41 41 41 41 41 41 42 42 43 43 43 44 45 46 46 47 48 48 48 48 48 48 48 47 47 47 47 46 45 45 44 44 43 43 42 42 42 42 43 43 43 43 43 44 44 44
36 36 37 37 37 37 37 38 38 38 39 39 39 39 40 40 40 40 40 41 41 41 40 40 40 40 41 41 41 41 42 43 43 42 42 43 43 44 46 48 48 48 48 48 48 48 48 47 47 47 47 46 46 45 44 44 44 44 44 44 43 43 43 42 42 43 43 43 44
36 36 36 37 37 37 37 37 38 38 38 39 39 39 39 39 39 39 40 40 40 40 40 40 40 40 40 41 41 41 42 43 43 42 42 42 42 42 44 45 46 46 46 47 47 48 47 47 47 47 47 46 46 46 45 44 44 44 44 44 44 44 43 43 42 42 42 43 44
36 36 36 37 37 37 37 37 37 37 38 38 39 39 39 39 39 39 39 39 39 39 39 40 40 40 40 40 41 41 41 42 42 42 42 42 42 42 42 43 42 42 43 46 46 46 47 47 47 47 47 46 46 46 45 45 45 44 44 43 44 44 44 44 43 43 43 43 43
36 37 37 38 36 36 36 36 36 36 37 38 38 39 39 39 39 39 39 39 39 39 39 40 40 40 41 41 41 41 41 41 41 41 42 42 42 42 42 42 42 42 43 44 45 46 46 47 46 46 46 46 46 46 46 45 45 45 44 43 43 43 43 43 43 43 43 43 43
37 37 37 37 36 36 35 35 36 36 37 38 38 38 39 39 39 39 39 39 39 39 39 39 39 40 40 41 41 41 41 41 41 41 41 42 42 42 42 42 42 43 44 45 47 48 48 48 48 47 46 45 46 46 46 46 45 45 44 44 43 42 42 42 42 42 42 42 42
37 36 36 36 36 36 35 35 35 35 36 37 37 38 38 38 39 39 39 39 39 39 40 39 39 40 40 40 40 40 41 41 41 41 41 41 41 41 42 42 43 44 44 46 47 48 49 49 49 49 47 46 45 45 45 44 44 44 43 43 42 42 41 41 41 41 41 42 42
37 36 36 37 36 35 35 35 35 35 35 36 36 36 37 37 38 38 38 38 39 40 40 40 40 40 41 40 39 40 40 41 42 42 42 42 42 43 42 43 43 44 44 46 47 48 49 49 50 49 49 46 46 45 44 44 43 43 42 42 42 41 41 41 40 40 40 41 41
36 36 36 36 36 36 35 35 35 35 35 35 35 36 36 37 37 37 38 38 39 39 40 40 41 41 40 39 39 39 40 41 41 42 42 42 43 43 43 44 44 44 46 47 48 49 49 49 49 50 49 48 46 45 45 44 44 43 43 42 42 41 41 40 40 40 40 40 40
36 36 36 36 36 36 36 35 35 35 35 35 36 37 37 37 37 37 37 38 38 39 39 40 42 42 41 40 40 40 40 40 41 42 42 43 43 43 43 44 44 45 46 48 49 49 49 49 49 49 49 49 47 46 46 46 45 44 44 43 43 42 41 41 40 40 40 39 39
36 36 36 36 36 36 36 36 36 36 36 37 37 37 37 37 36 36 36 36 37 38 39 40 40 41 41 41 41 40 40 40 41 41 42 42 42 42 43 44 44 45 47 49 50 50 50 50 49 49 49 49 47 46 46 46 46 45 44 44 43 42 42 41 41 40 40 40 39
36 36 35 35 36 36 35 36 36 36 37 37 36 36 36 36 36 36 36 35 37 39 40 40 39 39 40 41 42 42 41 41 41 41 41 42 43 43 43 43 43 45 47 50 50 50 50 50 50 49 49 49 48 46 45 45 45 45 45 44 43 43 43 43 42 41 41 40 40
36 35 35 35 35 35 35 36 36 36 36 36 36 36 36 36 36 36 36 36 37 38 39 39 38 38 39 41 42 42 42 41 41 41 41 41 41 41 41 42 42 44 47 49 50 50 50 50 50 50 49 49 48 46 45 45 45 45 45 45 44 44 44 44 44 43 42 42 41
35 35 35 35 35 35 36 36 36 36 36 36 36 36 36 36 36 36 36 36 36 37 37 38 38 37 38 39 40 41 41 41 41 42 42 41 41 40 41 42 42 44 47 49 50 50 50 50 50 50 50 49 48 46 45 44 44 45 45 45 45 44 44 43 44 43 43 43 43
35 35 35 35 35 35 36 36 36 36 35 35 35 35 35 35 36 36 36 37 37 37 37 38 38 38 38 38 40 40 41 42 42 41 41 41 41 41 41 42 43 45 48 49 50 50 50 50 50 50 50 50 48 46 44 44 44 44 44 45 45 45 44 44 44 44 44 44 44
34 34 34 34 35 35 35 35 35 35 35 35 35 35 35 35 35 36 36 37 38 37 37 37 38 39 39 39 39 40 41 41 41 41 40 40 40 40 41 41 42 45 48 49 49 50 50 50 50 50 49 49 47 45 44 44 44 44 44 44 44 45 45 45 45 45 45 44 44
34 34 34 34 34 34 35 35 35 35 35 35 35 35 35 35 35 36 37 38 38 37 36 37 37 38 38 38 38 39 40 40 40 40 40 40 40 40 40 40 41 44 47 48 49 49 49 49 50 50 49 48 45 43 43 44 44 44 44 44 44 44 45 45 45 46 46 46 45
35 35 34 34 34 34 34 34 34 34 34 34 35 35 35 35 36 36 37 38 37 36 36 36 37 37 37 37 38 38 39 40 40 40 40 40 39 39 39 40 40 42 45 47 48 48 49 49 49 49 48 46 43 42 43 43 44 44 44 44 44 44 44 45 45 46 46 46 46
36 35 35 35 35 35 34 34 34 34 34 34 35 35 35 36 36 36 37 38 36 36 36 36 36 37 37 37 38 38 38 38 39 39 39 39 39 39 39 39 39 41 43 46 47 48 48 49 49 49 48 45 43 42 42 43 43 43 43 43 44 44 44 45 45 46 46 45 45
36 36 35 35 35 35 35 34 34 34 34 34 35 35 35 36 36 37 37 38 37 36 36 36 36 37 37 38 38 38 38 38 38 38 38 38 38 39 39 39 39 40 42 45 46 47 48 48 48 48 48 47 44 43 43 42 42 43 43 43 44 44 44 45 45 45 45 45 45
36 36 35 35 35 35 34 34 34 34 34 34 35 35 35 36 36 37 38 38 37 37 37 37 37 37 38 39 39 38 37 37 37 37 37 37 38 39 40 39 39 39 41 44 45 46 47 47 48 48 48 47 45 44 44 43 42 42 42 43 43 43 44 44 45 45 45 45 45
36 36 35 35 35 35 34 34 34 35 35 35 35 35 36 37 37 37 37 37 37 37 37 38 37 38 38 39 39 38 37 37 37 37 37 37 38 39 40 39 38 38 39 42 44 45 46 47 47 48 48 47 45 44 44 44 43 42 42 43 43 43 43 44 44 45 45 45 45
MSLP
1013.68 1013.64 1013.60 1013.56 1013.56 1013.52 1013.48 1013.40 1013.32 1013.28 1013.20 1013.12 1013.08 1013.00 1012.96 1012.92 1012.84 1012.84 1012.80 1012.72 1012.72 1012.68 1012.64 1012.60 1012.52 1012.44 1012.40 1012.36 1012.36 1012.36 1012.36 1012.32 1012.32 1012.28 1012.24 1012.16 1012.16 1012.12 1012.08 1012.00 1011.96 1011.88 1011.88 1011.88 1011.96 1012.08 1012.16 1012.28 1012.28 1012.24 1012.16 1012.16 1012.12 1012.12 1012.12 1012.08 1012.00 1011.92 1011.84 1011.84 1011.92 1011.96 1012.00 1012.12 1012.24 1012.28 1012.32 1012.36 1012.44
1013.80 1013.72 1013.68 1013.64 1013.56 1013.56 1013.56 1013.52 1013.44 1013.40 1013.32 1013.24 1013.16 1013.12 1013.04 1013.00 1012.96 1012.88 1012.84 1012.80 1012.72 1012.72 1012.68 1012.68 1012.60 1012.56 1012.48 1012.44 1012.36 1012.36 1012.32 1012.28 1012.28 1012.32 1012.32 1012.28 1012.28 1012.20 1012.12 1012.08 1012.00 1011.92 1011.92 1011.96 1012.00 1012.08 1012.20 1012.28 1012.36 1012.36 1012.36 1012.32 1012.28 1012.28 1012.28 1012.24 1012.16 1012.12 1012.04 1012.00 1012.00 1012.00 1012.08 1012.16 1012.28 1012.32 1012.36 1012.44 1012.48
1014.00 1013.88 1013.80 1013.72 1013.68 1013.68 1013.68 1013.68 1013.56 1013.56 1013.48 1013.40 1013.28 1013.24 1013.16 1013.12 1013.04 1013.00 1012.96 1012.88 1012.80 1012.76 1012.76 1012.76 1012.72 1012.64 1012.60 1012.52 1012.44 1012.40 1012.32 1012.28 1012.28 1012.28 1012.28 1012.28 1012.28 1012.28 1012.20 1012.12 1012.04 1012.00 1012.04 1012.08 1012.08 1012.12 1012.20 1012.28 1012.32 1012.36 1012.40 1012.40 1012.36 1012.28 1012.28 1012.28 1012.24 1012.20 1012.16 1012.16 1012.12 1012.12 1012.12 1012.24 1012.28 1012.28 1012.40 1012.48 1012.56
1014.20 1014.12 1014.00 1013.92 1013.84 1013.80 1013.72 1013.72 1013.64 1013.60 1013.56 1013.52 1013.44 1013.44 1013.36 1013.28 1013.16 1013.12 1013.08 1012.96 1012.84 1012.84 1012.84 1012.84 1012.76 1012.72 1012.68 1012.60 1012.56 1012.44 1012.40 1012.36 1012.28 1012.28 1012.28 1012.28 1012.28 1012.28 1012.24 1012.20 1012.16 1012.16 1012.16 1012.20 1012.24 1012.24 1012.24 1012.28 1012.28 1012.40 1012.44 1012.44 1012.40 1012.32 1012.28 1012.32 1012.28 1012.28 1012.28 1012.24 1012.24 1012.24 1012.28 1012.28 1012.36 1012.44 1012.48 1012.56 1012.68
1014.44 1014.32 1014.24 1014.12 1014.04 1013.92 1013.84 1013.72 1013.68 1013.64 1013.60 1013.56 1013.56 1013.56 1013.48 1013.40 1013.32 1013.24 1013.16 1013.12 1013.00 1012.92 1012.88 1012.84 1012.84 1012.80 1012.72 1012.72 1012.64 1012.56 1012.52 1012.44 1012.40 1012.36 1012.36 1012.32 1012.28 1012.28 1012.28 1012.28 1012.28 1012.28 1012.28 1012.28 1012.28 1012.28 1012.28 1012.28 1012.32 1012.44 1012.48 1012.48 1012.44 1012.36 1012.32 1012.28 1012.28 1012.28 1012.28 1012.28 1012.32 1012.32 1012.36 1012.44 1012.48 1012.56 1012.60 1012.72 1012.84
1014.68 1014.56 1014.44 1014.28 1014.16 1014.08 1013.96 1013.84 1013.72 1013.64 1013.60 1013.56 1013.56 1013.56 1013.52 1013.48 1013.44 1013.36 1013.28 1013.16 1013.12 1013.00 1012.92 1012.88 1012.84 1012.84 1012.80 1012.76 1012.72 1012.68 1012.64 1012.56 1012.56 1012.48 1012.44 1012.40 1012.36 1012.32 1012.32 1012.36 1012.36 1012.40 1012.40 1012.40 1012.36 1012.32 1012.32 1012.32 1012.36 1012.44 1012.52 1012.56 1012.56 1012.48 1012.40 1012.36 1012.32 1012.36 1012.36 1012.36 1012.40 1012.40 1012.44 1012.52 1012.56 1012.68 1012.76 1012.84 1013.00
1014.88 1014.72 1014.60 1014.44 1014.32 1014.20 1014.08 1013.96 1013.84 1013.72 1013.60 1013.56 1013.56 1013.52 1013.44 1013.44 1013.36 1013.32 1013.28 1013.16 1013.12 1013.04 1012.96 1012.88 1012.84 1012.84 1012.80 1012.76 1012.72 1012.72 1012.72 1012.68 1012.64 1012.56 1012.56 1012.52 1012.48 1012.44 1012.44 1012.44 1012.44 1012.44 1012.44 1012.44 1012.40 1012.40 1012.36 1012.36 1012.36 1012.40 1012.48 1012.56 1012.56 1012.56 1012.56 1012.44 1012.44 1012.44 1012.44 1012.44 1012.48 1012.52 1012.56 1012.60 1012.68 1012.76 1012.84 1013.00 1013.08
1015.00 1014.88 1014.76 1014.60 1014.48 1014.36 1014.24 1014.08 1013.92 1013.80 1013.72 1013.60 1013.56 1013.52 1013.44 1013.40 1013.32 1013.28 1013.24 1013.16 1013.12 1013.08 1013.00 1012.92 1012.84 1012.84 1012.84 1012.80 1012.76 1012.76 1012.72 1012.72 1012.68 1012.64 1012.60 1012.56 1012.56 1012.52 1012.52 1012.48 1012.44 1012.44 1012.44 1012.44 1012.44 1012.44 1012.44 1012.40 1012.40 1012.44 1012.48 1012.56 1012.60 1012.60 1012.60 1012.56 1012.56 1012.56 1012.60 1012.60 1012.60 1012.60 1012.64 1012.68 1012.72 1012.84 1012.92 1013.04 1013.12
1015.16 1015.04 1014.88 1014.76 1014.60 1014.44 1014.32 1014.20 1014.08 1014.00 1013.88 1013.76 1013.68 1013.56 1013.48 1013.40 1013.36 1013.28 1013.24 1013.16 1013.12 1013.08 1013.00 1012.92 1012.88 1012.84 1012.84 1012.80 1012.76 1012.76 1012.72 1012.72 1012.72 1012.68 1012.64 1012.60 1012.56 1012.56 1012.56 1012.56 1012.56 1012.56 1012.56 1012.52 1012.52 1012.52 1012.52 1012.48 1012.48 1012.48 1012.48 1012.52 1012.56 1012.64 1012.64 1012.64 1012.64 1012.68 1012.72 1012.80 1012.80 1012.80 1012.80 1012.80 1012.80 1012.84 1012.96 1013.08 1013.20
1015.40 1015.28 1015.08 1014.88 1014.76 1014.56 1014.44 1014.32 1014.20 1014.12 1014.04 1013.96 1013.84 1013.72 1013.60 1013.52 1013.44 1013.36 1013.28 1013.28 1013.16 1013.12 1013.08 1013.00 1012.92 1012.84 1012.84 1012.76 1012.76 1012.76 1012.72 1012.72 1012.72 1012.72 1012.68 1012.64 1012.60 1012.60 1012.60 1012.60 1012.60 1012.60 1012.60 1012.56 1012.60 1012.60 1012.56 1012.56 1012.56 1012.56 1012.56 1012.56 1012.60 1012.64 1012.64 1012.68 1012.72 1012.76 1012.84 1012.96 1013.00 1013.00 1013.00 1012.92 1012.92 1012.92 1013.00 1013.08 1013.16
1015.56 1015.44 1015.32 1015.12 1014.96 1014.76 1014.60 1014.44 1014.32 1014.28 1014.16 1014.12 1014.00 1013.88 1013.76 1013.64 1013.56 1013.48 1013.44 1013.36 1013.28 1013.24 1013.16 1013.08 1013.00 1012.96 1012.88 1012.84 1012.76 1012.76 1012.72 1012.72 1012.72 1012.72 1012.72 1012.68 1012.68 1012.64 1012.64 1012.64 1012.64 1012.64 1012.64 1012.64 1012.68 1012.72 1012.68 1012.64 1012.60 1012.60 1012.56 1012.60 1012.60 1012.60 1012.68 1012.72 1012.76 1012.84 1012.92 1013.00 1013.08 1013.12 1013.08 1013.08 1013.00 1013.00 1013.00 1013.04 1013.12
1015.72 1015.60 1015.48 1015.28 1015.12 1014.96 1014.80 1014.68 1014.52 1014.44 1014.32 1014.28 1014.16 1014.08 1013.96 1013.80 1013.72 1013.60 1013.52 1013.44 1013.40 1013.28 1013.24 1013.20 1013.12 1013.08 1013.00 1012.92 1012.84 1012.72 1012.72 1012.72 1012.72 1012.72 1012.72 1012.72 1012.68 1012.68 1012.68 1012.64 1012.60 1012.64 1012.64 1012.68 1012.72 1012.72 1012.72 1012.68 1012.64 1012.60 1012.60 1012.56 1012.60 1012.60 1012.64 1012.72 1012.80 1012.88 1012.96 1013.00 1013.04 1013.08 1013.08 1013.08 1013.08 1013.04 1013.04 1013.04 1013.08
1015.96 1015.80 1015.64 1015.48 1015.28 1015.12 1015.00 1014.84 1014.68 1014.56 1014.44 1014.36 1014.28 1014.16 1014.08 1013.96 1013.84 1013.72 1013.64 1013.56 1013.48 1013.40 1013.28 1013.28 1013.20 1013.16 1013.12 1013.04 1012.92 1012.84 1012.80 1012.72 1012.72 1012.72 1012.72 1012.72 1012.68 1012.68 1012.68 1012.68 1012.64 1012.64 1012.64 1012.68 1012.68 1012.72 1012.72 1012.68 1012.60 1012.56 1012.56 1012.56 1012.56 1012.56 1012.60 1012.72 1012.80 1012.84 1012.92 1012.96 1013.00 1013.00 1013.00 1013.00 1013.08 1013.08 1013.12 1013.08 1013.08
1016.12 1015.96 1015.80 1015.64 1015.48 1015.32 1015.20 1015.04 1014.88 1014.76 1014.64 1014.52 1014.36 1014.24 1014.12 1014.00 1013.92 1013.84 1013.72 1013.64 1013.56 1013.44 1013.40 1013.28 1013.28 1013.20 1013.16 1013.12 1013.00 1012.96 1012.88 1012.84 1012.80 1012.76 1012.72 1012.68 1012.64 1012.64 1012.68 1012.64 1012.64 1012.60 1012.60 1012.60 1012.68 1012.68 1012.68 1012.64 1012.56 1012.56 1012.52 1012.52 1012.52 1012.56 1012.56 1012.64 1012.72 1012.76 1012.80 1012.84 1012.88 1012.88 1012.88 1012.92 1013.00 1013.08 1013.12 1013.12 1013.12
1016.28 1016.12 1016.00 1015.84 1015.64 1015.52 1015.40 1015.24 1015.12 1014.96 1014.84 1014.68 1014.52 1014.36 1014.20 1014.08 1014.00 1013.88 1013.76 1013.72 1013.60 1013.52 1013.44 1013.32 1013.28 1013.20 1013.16 1013.12 1013.12 1013.04 1012.96 1012.92 1012.88 1012.84 1012.80 1012.72 1012.72 1012.68 1012.64 1012.60 1012.56 1012.56 1012.56 1012.56 1012.56 1012.60 1012.60 1012.60 1012.56 1012.56 1012.52 1012.48 1012.48 1012.48 1012.56 1012.56 1012.68 1012.72 1012.72 1012.72 1012.72 1012.76 1012.80 1012.84 1012.92 1013.00 1013.04 1013.08 1013.12
1016.44 1016.28 1016.12 1016.00 1015.84 1015.72 1015.56 1015.44 1015.28 1015.12 1015.00 1014.84 1014.68 1014.52 1014.32 1014.16 1014.04 1013.92 1013.84 1013.72 1013.64 1013.56 1013.48 1013.40 1013.28 1013.20 1013.12 1013.08 1013.08 1013.04 1013.00 1013.00 1012.96 1012.92 1012.88 1012.84 1012.76 1012.72 1012.68 1012.60 1012.56 1012.56 1012.52 1012.44 1012.44 1012.48 1012.52 1012.52 1012.52 1012.52 1012.52 1012.48 1012.44 1012.44 1012.48 1012.52 1012.56 1012.60 1012.64 1012.68 1012.64 1012.64 1012.68 1012.72 1012.80 1012.88 1012.96 1013.00 1013.04
1016.56 1016.44 1016.28 1016.16 1016.00 1015.84 1015.72 1015.64 1015.48 1015.32 1015.16 1015.00 1014.84 1014.68 1014.48 1014.32 1014.12 1014.00 1013.88 1013.76 1013.68 1013.60 1013.52 1013.44 1013.36 1013.28 1013.16 1013.12 1013.04 1013.00 1013.00 1013.00 1012.96 1012.92 1012.88 1012.84 1012.80 1012.72 1012.68 1012.60 1012.56 1012.56 1012.48 1012.44 1012.44 1012.44 1012.44 1012.44 1012.44 1012.44 1012.44 1012.44 1012.44 1012.40 1012.44 1012.44 1012.48 1012.52 1012.56 1012.56 1012.52 1012.48 1012.52 1012.60 1012.72 1012.80 1012.84 1012.88 1012.96
1016.68 1016.56 1016.40 1016.28 1016.12 1016.00 1015.88 1015.76 1015.64 1015.48 1015.36 1015.16 1015.00 1014.84 1014.68 1014.52 1014.32 1014.12 1014.00 1013.84 1013.72 1013.64 1013.56 1013.44 1013.36 1013.32 1013.28 1013.16 1013.12 1013.04 1013.00 1012.96 1012.92 1012.84 1012.84 1012.80 1012.76 1012.72 1012.64 1012.56 1012.56 1012.48 1012.44 1012.44 1012.40 1012.40 1012.36 1012.32 1012.32 1012.36 1012.40 1012.40 1012.40 1012.36 1012.36 1012.36 1012.40 1012.40 1012.44 1012.40 1012.36 1012.32 1012.36 1012.44 1012.52 1012.60 1012.72 1012.72 1012.76
1016.76 1016.64 1016.52 1016.40 1016.24 1016.12 1016.00 1015.88 1015.72 1015.60 1015.44 1015.28 1015.12 1015.00 1014.84 1014.68 1014.52 1014.32 1014.12 1014.00 1013.84 1013.68 1013.56 1013.48 1013.36 1013.28 1013.24 1013.20 1013.12 1013.12 1013.04 1013.00 1012.92 1012.84 1012.76 1012.72 1012.68 1012.60 1012.56 1012.52 1012.44 1012.44 1012.44 1012.36 1012.36 1012.32 1012.28 1012.28 1012.28 1012.28 1012.28 1012.28 1012.28 1012.28 1012.28 1012.28 1012.28 1012.28 1012.28 1012.28 1012.24 1012.20 1012.20 1012.20 1012.28 1012.40 1012.44 1012.52 1012.56
1016.84 1016.76 1016.64 1016.48 1016.32 1016.20 1016.12 1015.96 1015.84 1015.68 1015.56 1015.40 1015.28 1015.12 1014.96 1014.80 1014.64 1014.52 1014.32 1014.12 1013.92 1013.76 1013.60 1013.48 1013.32 1013.24 1013.16 1013.12 1013.12 1013.08 1013.04 1013.00 1012.92 1012.84 1012.76 1012.68 1012.60 1012.56 1012.52 1012.44 1012.40 1012.40 1012.36 1012.32 1012.28 1012.28 1012.28 1012.24 1012.24 1012.24 1012.24 1012.24 1012.24 1012.24 1012.24 1012.20 1012.20 1012.20 1012.16 1012.16 1012.12 1012.12 1012.12 1012.12 1012.12 1012.16 1012.24 1012.28 1012.36
1016.92 1016.84 1016.72 1016.56 1016.40 1016.28 1016.12 1016.00 1015.84 1015.72 1015.56 1015.44 1015.32 1015.20 1015.04 1014.84 1014.72 1014.60 1014.44 1014.24 1014.04 1013.88 1013.72 1013.52 1013.36 1013.24 1013.12 1013.04 1013.04 1013.00 1013.00 1013.00 1012.96 1012.88 1012.80 1012.72 1012.60 1012.56 1012.44 1012.40 1012.32 1012.28 1012.28 1012.24 1012.20 1012.20 1012.20 1012.16 1012.16 1012.16 1012.12 1012.12 1012.12 1012.12 1012.12 1012.12 1012.12 1012.12 1012.08 1012.04 1012.04 1012.04 1012.04 1012.04 1012.04 1012.04 1012.08 1012.12 1012.12
1016.88 1016.76 1016.68 1016.56 1016.44 1016.28 1016.16 1016.04 1015.88 1015.76 1015.64 1015.52 1015.36 1015.24 1015.08 1014.96 1014.84 1014.68 1014.48 1014.28 1014.16 1014.00 1013.84 1013.64 1013.44 1013.24 1013.08 1013.00 1012.96 1012.92 1012.88 1012.84 1012.84 1012.84 1012.80 1012.72 1012.64 1012.56 1012.44 1012.36 1012.32 1012.28 1012.24 1012.16 1012.12 1012.12 1012.12 1012.08 1012.04 1012.04 1012.04 1012.04 1012.00 1012.04 1012.04 1012.08 1012.08 1012.04 1012.00 1011.96 1011.92 1011.92 1011.96 1011.96 1011.96 1011.96 1011.96 1011.96 1011.96
1016.84 1016.72 1016.56 1016.48 1016.40 1016.28 1016.12 1016.00 1015.92 1015.80 1015.68 1015.56 1015.40 1015.28 1015.12 1015.00 1014.84 1014.72 1014.56 1014.40 1014.24 1014.12 1013.96 1013.72 1013.48 1013.24 1013.00 1012.88 1012.84 1012.80 1012.80 1012.76 1012.76 1012.76 1012.72 1012.68 1012.64 1012.56 1012.44 1012.40 1012.32 1012.28 1012.20 1012.12 1012.08 1012.04 1012.00 1012.00 1011.96 1011.92 1011.92 1011.96 1011.92 1011.92 1011.96 1011.96 1011.96 1011.96 1011.92 1011.88 1011.84 1011.84 1011.84 1011.84 1011.84 1011.84 1011.84 1011.80 1011.80
1016.76 1016.64 1016.52 1016.40 1016.28 1016.20 1016.08 1015.96 1015.84 1015.76 1015.64 1015.52 1015.44 1015.28 1015.12 1015.00 1014.84 1014.72 1014.56 1014.44 1014.28 1014.12 1014.00 1013.80 1013.56 1013.28 1013.00 1012.84 1012.76 1012.72 1012.72 1012.68 1012.68 1012.64 1012.64 1012.60 1012.56 1012.52 1012.44 1012.36 1012.28 1012.24 1012.12 1012.08 1012.00 1012.00 1011.92 1011.84 1011.84 1011.80 1011.80 1011.84 1011.84 1011.84 1011.84 1011.84 1011.84 1011.84 1011.84 1011.84 1011.80 1011.76 1011.72 1011.72 1011.68 1011.68 1011.68 1011.64 1011.64
1016.72 1016.56 1016.44 1016.28 1016.20 1016.12 1016.00 1015.92 1015.84 1015.72 1015.60 1015.44 1015.36 1015.24 1015.12 1014.96 1014.84 1014.72 1014.56 1014.44 1014.28 1014.12 1014.00 1013.80 1013.56 1013.28 1013.00 1012.84 1012.68 1012.60 1012.56 1012.56 1012.56 1012.56 1012.52 1012.48 1012.44 1012.40 1012.36 1012.28 1012.24 1012.16 1012.04 1012.00 1011.88 1011.80 1011.76 1011.72 1011.68 1011.64 1011.64 1011.68 1011.68 1011.68 1011.68 1011.68 1011.72 1011.72 1011.72 1011.72 1011.72 1011.72 1011.68 1011.60 1011.56 1011.56 1011.52 1011.48 1011.44
1016.72 1016.56 1016.44 1016.32 1016.20 1016.08 1016.00 1015.88 1015.80 1015.72 1015.56 1015.44 1015.28 1015.20 1015.08 1014.92 1014.80 1014.68 1014.56 1014.44 1014.28 1014.08 1013.92 1013.72 1013.56 1013.32 1013.04 1012.84 1012.68 1012.56 1012.48 1012.44 1012.44 1012.44 1012.40 1012.36 1012.32 1012.28 1012.28 1012.24 1012.12 1012.08 1011.96 1011.84 1011.76 1011.68 1011.60 1011.56 1011.48 1011.48 1011.48 1011.48 1011.52 1011.52 1011.56 1011.56 1011.56 1011.56 1011.56 1011.60 1011.56 1011.56 1011.56 1011.56 1011.48 1011.44 1011.40 1011.36 1011.32
1016.76 1016.60 1016.44 1016.32 1016.20 1016.12 1016.00 1015.88 1015.76 1015.68 1015.56 1015.44 1015.28 1015.16 1015.04 1014.88 1014.76 1014.68 1014.56 1014.40 1014.20 1014.00 1013.84 1013.68 1013.52 1013.28 1013.08 1012.88 1012.72 1012.60 1012.48 1012.40 1012.32 1012.28 1012.28 1012.20 1012.16 1012.12 1012.12 1012.08 1012.00 1011.96 1011.88 1011.76 1011.68 1011.56 1011.48 1011.40 1011.36 1011.28 1011.28 1011.32 1011.32 1011.36 1011.36 1011.40 1011.40 1011.44 1011.44 1011.44 1011.44 1011.44 1011.44 1011.44 1011.40 1011.36 1011.32 1011.28 1011.24
1016.84 1016.68 1016.48 1016.36 1016.24 1016.12 1016.00 1015.88 1015.76 1015.68 1015.56 1015.44 1015.28 1015.16 1015.04 1014.88 1014.76 1014.68 1014.52 1014.36 1014.16 1014.00 1013.80 1013.64 1013.44 1013.24 1013.04 1012.92 1012.76 1012.56 1012.44 1012.36 1012.28 1012.24 1012.12 1012.08 1012.04 1012.00 1011.92 1011.84 1011.80 1011.72 1011.68 1011.56 1011.52 1011.44 1011.40 1011.28 1011.24 1011.16 1011.12 1011.12 1011.12 1011.12 1011.16 1011.16 1011.24 1011.24 1011.24 1011.24 1011.24 1011.24 1011.24 1011.24 1011.24 1011.24 1011.24 1011.20 1011.16
1016.88 1016.72 1016.56 1016.44 1016.28 1016.12 1016.00 1015.88 1015.76 1015.68 1015.56 1015.40 1015.28 1015.12 1015.00 1014.88 1014.76 1014.64 1014.48 1014.32 1014.16 1014.00 1013.84 1013.64 1013.40 1013.24 1013.12 1012.96 1012.76 1012.56 1012.44 1012.28 1012.20 1012.12 1012.04 1011.96 1011.92 1011.84 1011.76 1011.72 1011.64 1011.56 1011.48 1011.44 1011.32 1011.28 1011.20 1011.12 1011.12 1011.04 1011.00 1011.00 1011.00 1011.00 1011.00 1011.00 1011.04 1011.04 1011.04 1011.04 1011.04 1011.08 1011.08 1011.08 1011.08 1011.08 1011.08 1011.08 1011.08
1016.84 1016.72 1016.56 1016.44 1016.28 1016.12 1016.00 1015.88 1015.76 1015.64 1015.48 1015.36 1015.24 1015.12 1015.00 1014.84 1014.72 1014.60 1014.48 1014.32 1014.16 1014.00 1013.84 1013.64 1013.44 1013.28 1013.12 1012.96 1012.76 1012.56 1012.40 1012.28 1012.12 1012.00 1011.96 1011.88 1011.84 1011.72 1011.60 1011.56 1011.44 1011.36 1011.28 1011.20 1011.12 1011.08 1011.00 1011.00 1010.92 1010.88 1010.84 1010.84 1010.84 1010.84 1010.84 1010.84 1010.84 1010.84 1010.88 1010.88 1010.88 1010.88 1010.92 1010.88 1010.88 1010.88 1010.92 1010.92 1010.96
1016.80 1016.72 1016.56 1016.44 1016.28 1016.12 1016.00 1015.84 1015.72 1015.56 1015.48 1015.32 1015.16 1015.08 1015.00 1014.84 1014.72 1014.56 1014.48 1014.32 1014.12 1013.92 1013.72 1013.60 1013.48 1013.32 1013.12 1012.92 1012.76 1012.60 1012.44 1012.24 1012.08 1011.96 1011.84 1011.80 1011.68 1011.56 1011.48 1011.40 1011.28 1011.24 1011.12 1011.04 1010.96 1010.88 1010.84 1010.80 1010.72 1010.72 1010.72 1010.72 1010.72 1010.72 1010.72 1010.68 1010.68 1010.68 1010.68 1010.68 1010.68 1010.72 1010.72 1010.72 1010.72 1010.68 1010.72 1010.76 1010.76
1016.80 1016.68 1016.56 1016.40 1016.24 1016.04 1015.88 1015.76 1015.64 1015.52 1015.44 1015.28 1015.16 1015.08 1014.96 1014.84 1014.68 1014.52 1014.36 1014.28 1014.08 1013.88 1013.72 1013.56 1013.44 1013.28 1013.12 1012.88 1012.72 1012.56 1012.36 1012.20 1012.04 1011.92 1011.76 1011.68 1011.56 1011.44 1011.36 1011.28 1011.16 1011.08 1011.00 1010.84 1010.80 1010.72 1010.68 1010.60 1010.56 1010.56 1010.56 1010.56 1010.56 1010.56 1010.56 1010.56 1010.52 1010.48 1010.44 1010.44 1010.44 1010.48 1010.48 1010.48 1010.48 1010.48 1010.52 1010.52 1010.56
1016.80 1016.68 1016.56 1016.40 1016.20 1016.00 1015.84 1015.72 1015.56 1015.44 1015.32 1015.24 1015.12 1015.00 1014.88 1014.72 1014.56 1014.44 1014.28 1014.16 1014.00 1013.84 1013.72 1013.56 1013.40 1013.24 1013.08 1012.88 1012.72 1012.52 1012.32 1012.20 1012.04 1011.84 1011.68 1011.56 1011.48 1011.36 1011.24 1011.12 1011.00 1010.92 1010.84 1010.72 1010.64 1010.56 1010.56 1010.44 1010.44 1010.36 1010.32 1010.32 1010.36 1010.44 1010.44 1010.44 1010.40 1010.32 1010.28 1010.24 1010.20 1010.20 1010.24 1010.28 1010.28 1010.28 1010.28 1010.32 1010.32
1016.80 1016.64 1016.48 1016.36 1016.20 1016.00 1015.84 1015.68 1015.52 1015.40 1015.28 1015.12 1015.04 1014.92 1014.80 1014.68 1014.52 1014.36 1014.20 1014.04 1013.92 1013.76 1013.60 1013.44 1013.32 1013.16 1013.00 1012.84 1012.72 1012.52 1012.32 1012.12 1011.96 1011.84 1011.68 1011.52 1011.40 1011.28 1011.16 1011.04 1010.88 1010.76 1010.68 1010.56 1010.48 1010.44 1010.40 1010.32 1010.28 1010.20 1010.16 1010.12 1010.16 1010.20 1010.24 1010.28 1010.24 1010.16 1010.12 1010.04 1010.00 1010.00 1010.00 1010.00 1010.00 1010.04 1010.08 1010.12 1010.12
1016.76 1016.60 1016.44 1016.32 1016.12 1016.00 1015.80 1015.64 1015.48 1015.36 1015.20 1015.08 1014.92 1014.76 1014.68 1014.56 1014.44 1014.28 1014.12 1013.92 1013.76 1013.60 1013.48 1013.32 1013.20 1013.04 1012.88 1012.72 1012.64 1012.48 1012.28 1012.08 1011.92 1011.76 1011.60 1011.48 1011.36 1011.24 1011.12 1011.00 1010.84 1010.72 1010.56 1010.48 1010.40 1010.32 1010.24 1010.16 1010.12 1010.04 1010.00 1010.00 1010.00 1010.00 1010.04 1010.04 1010.04 1010.00 1009.92 1009.88 1009.84 1009.80 1009.76 1009.76 1009.76 1009.76 1009.80 1009.84 1009.88
1016.68 1016.56 1016.44 1016.28 1016.08 1015.92 1015.76 1015.64 1015.48 1015.32 1015.16 1015.00 1014.84 1014.68 1014.52 1014.40 1014.28 1014.12 1014.00 1013.80 1013.64 1013.48 1013.32 1013.20 1013.04 1012.92 1012.76 1012.60 1012.48 1012.36 1012.16 1012.00 1011.84 1011.68 1011.56 1011.44 1011.32 1011.20 1011.04 1010.92 1010.80 1010.68 1010.56 1010.44 1010.36 1010.28 1010.16 1010.04 1009.96 1009.84 1009.80 1009.80 1009.80 1009.84 1009.84 1009.84 1009.80 1009.76 1009.72 1009.68 1009.64 1009.56 1009.56 1009.56 1009.56 1009.56 1009.56 1009.56 1009.56
1016.56 1016.48 1016.32 1016.16 1016.00 1015.84 1015.72 1015.56 1015.44 1015.28 1015.12 1014.92 1014.76 1014.56 1014.44 1014.24 1014.08 1013.96 1013.84 1013.72 1013.56 1013.36 1013.20 1013.04 1012.92 1012.76 1012.60 1012.52 1012.32 1012.16 1012.04 1011.92 1011.76 1011.60 1011.44 1011.32 1011.24 1011.12 1011.00 1010.84 1010.72 1010.60 1010.52 1010.44 1010.32 1010.24 1010.12 1009.96 1009.84 1009.72 1009.68 1009.64 1009.60 1009.56 1009.60 1009.60 1009.56 1009.56 1009.52 1009.48 1009.40 1009.36 1009.36 1009.36 1009.36 1009.32 1009.28 1009.28 1009.28
1016.44 1016.32 1016.20 1016.08 1015.92 1015.76 1015.60 1015.48 1015.36 1015.20 1015.00 1014.84 1014.68 1014.48 1014.32 1014.12 1013.96 1013.80 1013.68 1013.56 1013.44 1013.24 1013.04 1012.88 1012.76 1012.56 1012.44 1012.32 1012.16 1012.00 1011.84 1011.72 1011.60 1011.48 1011.32 1011.24 1011.12 1011.04 1010.88 1010.72 1010.60 1010.52 1010.44 1010.36 1010.28 1010.12 1010.04 1009.92 1009.80 1009.68 1009.56 1009.52 1009.44 1009.40 1009.36 1009.36 1009.32 1009.28 1009.24 1009.20 1009.16 1009.12 1009.12 1009.12 1009.12 1009.08 1009.00 1009.00 1009.00
1016.28 1016.12 1016.04 1015.96 1015.80 1015.64 1015.48 1015.36 1015.24 1015.08 1014.88 1014.72 1014.52 1014.36 1014.20 1014.04 1013.84 1013.64 1013.48 1013.40 1013.28 1013.12 1012.92 1012.72 1012.56 1012.36 1012.20 1012.12 1011.96 1011.76 1011.60 1011.48 1011.44 1011.32 1011.20 1011.08 1011.00 1010.88 1010.76 1010.64 1010.48 1010.40 1010.28 1010.24 1010.16 1010.04 1009.96 1009.84 1009.72 1009.56 1009.48 1009.40 1009.28 1009.16 1009.12 1009.12 1009.04 1009.00 1008.96 1008.92 1008.88 1008.84 1008.84 1008.88 1008.84 1008.80 1008.76 1008.72 1008.72
1016.12 1016.00 1015.88 1015.76 1015.64 1015.48 1015.32 1015.16 1015.04 1014.88 1014.72 1014.56 1014.40 1014.20 1014.04 1013.88 1013.68 1013.44 1013.28 1013.16 1013.04 1012.92 1012.76 1012.56 1012.36 1012.12 1012.00 1011.84 1011.72 1011.56 1011.36 1011.28 1011.16 1011.12 1011.00 1010.88 1010.80 1010.72 1010.56 1010.44 1010.32 1010.24 1010.12 1010.08 1010.00 1009.92 1009.84 1009.72 1009.56 1009.44 1009.32 1009.24 1009.08 1008.96 1008.88 1008.84 1008.80 1008.72 1008.68 1008.64 1008.64 1008.60 1008.56 1008.56 1008.56 1008.56 1008.52 1008.48 1008.44
1015.92 1015.84 1015.72 1015.56 1015.48 1015.32 1015.16 1015.00 1014.84 1014.68 1014.52 1014.40 1014.20 1014.04 1013.84 1013.68 1013.44 1013.28 1013.12 1013.00 1012.84 1012.72 1012.56 1012.36 1012.12 1011.96 1011.76 1011.64 1011.52 1011.32 1011.16 1011.00 1010.92 1010.84 1010.80 1010.72 1010.60 1010.48 1010.40 1010.28 1010.16 1010.00 1009.92 1009.88 1009.84 1009.72 1009.64 1009.52 1009.36 1009.24 1009.12 1009.00 1008.88 1008.72 1008.64 1008.56 1008.52 1008.44 1008.36 1008.32 1008.32 1008.32 1008.28 1008.28 1008.28 1008.28 1008.24 1008.24 1008.20
Wind_Speed
4 4 4 4 3 3 3 3 4 4 3 3 4 4 4 4 4 3 3 2 2 2 2 2 2 2 2 1 1 1 2 2 2 2 2 2 2 2 2 3 3 3 4 4 4 3 3 3 3 2 2 2 2 2 2 2 3 2 3 3 3 3 4 4 4 4 5 5 4
6 5 4 4 4 3 3 3 3 4 4 3 4 4 4 4 4 4 4 4 3 2 2 2 2 2 2 1 1 1 1 1 1 1 1 1 1 2 2 2 3 3 4 4 3 3 2 2 2 2 2 2 2 2 2 2 2 2 3 3 2 2 3 3 4 4 4 4 4
8 7 6 5 5 4 3 3 3 4 4 4 4 4 4 4 4 4 4 4 4 3 2 2 2 2 2 2 1 1 1 1 1 1 1 1 1 1 2 2 3 3 3 3 3 2 2 2 2 1 1 1 1 2 2 2 2 2 2 3 2 2 2 2 3 3 3 3 4
9 8 8 7 7 6 5 3 3 4 4 3 4 4 4 4 3 3 3 4 4 3 3 2 2 2 2 2 2 2 2 1 1 1 1 0 1 1 1 2 2 2 3 3 3 3 2 2 2 2 1 1 2 1 1 2 2 2 2 2 2 2 2 2 2 2 2 3 3
9 8 8 8 8 7 6 4 4 4 3 3 3 3 3 3 3 3 3 4 4 3 3 2 2 2 2 1 2 2 2 2 2 1 1 0 0 1 1 1 1 1 2 2 2 3 3 3 2 2 2 2 2 2 2 2 2 2 2 2 2 2 2 2 2 2 2 2 2
8 8 8 8 8 8 7 6 6 5 3 3 3 3 3 3 3 4 4 4 4 4 3 3 2 2 2 2 1 1 2 2 2 2 2 1 1 1 1 2 2 1 1 2 2 2 3 3 2 2 2 2 2 2 2 2 2 1 1 1 1 2 2 2 2 2 2 2 2
8 8 8 8 8 8 7 7 6 5 4 3 4 4 4 4 4 4 5 5 4 4 4 3 2 2 2 2 2 2 1 1 2 2 2 2 1 1 1 2 2 2 2 2 2 2 2 2 2 2 1 1 1 2 3 3 2 1 1 0 1 1 2 2 2 2 2 2 2
7 8 8 8 8 8 7 7 6 6 5 4 5 5 5 5 5 5 5 5 4 4 4 3 3 3 2 2 2 2 2 2 2 2 2 2 1 1 1 1 2 2 2 2 2 2 2 2 2 2 2 2 1 1 2 2 2 2 1 1 0 1 1 2 2 2 2 3 3
7 8 8 8 8 8 8 7 7 6 6 6 6 7 7 6 6 6 5 5 5 5 5 4 4 4 3 3 3 2 2 2 2 2 2 2 2 1 1 1 1 2 2 2 2 2 2 1 1 2 2 2 2 2 1 1 1 1 1 2 1 0 1 2 2 3 3 4 4
8 8 8 8 9 8 8 8 7 7 6 7 7 8 8 8 7 6 6 5 5 6 6 6 6 6 5 4 3 3 2 2 2 2 2 2 2 2 2 2 2 2 2 2 2 2 2 2 2 2 2 2 2 3 3 2 2 1 1 1 1 1 1 2 2 3 4 4 5
9 8 8 8 9 8 8 7 7 7 7 7 7 7 7 7 7 6 6 5 6 7 7 7 7 7 7 6 4 3 3 2 2 3 3 3 3 3 2 2 3 3 3 3 3 2 2 2 2 2 3 2 3 3 3 4 4 3 3 2 2 2 2 3 3 3 4 5 6
9 8 8 8 8 8 8 7 6 6 6 7 7 7 6 6 6 6 6 6 6 6 7 7 8 8 7 7 6 5 3 3 3 3 3 3 3 3 3 3 3 3 4 3 3 3 3 3 3 4 4 4 3 3 4 5 5 5 5 5 4 4 4 4 4 3 3 4 5
8 8 8 8 8 8 8 7 6 6 6 7 6 6 6 6 6 6 6 6 5 5 6 6 7 7 7 7 7 7 6 4 3 3 3 3 3 3 3 3 3 3 4 4 3 3 3 4 4 4 5 5 4 4 4 5 6 6 6 6 6 6 6 5 5 4 4 4 4
8 8 8 8 8 8 7 7 6 6 6 6 6 6 5 5 6 6 6 5 5 5 5 5 5 5 6 7 7 7 7 7 6 5 4 4 3 3 3 3 3 3 3 3 4 4 4 4 4 5 5 5 5 5 5 6 6 6 7 7 7 7 7 6 6 5 5 5 5
8 8 9 8 8 8 7 7 6 6 6 7 6 6 5 5 5 5 5 5 5 5 5 4 4 4 5 6 7 7 8 7 7 7 6 5 5 4 4 4 4 3 3 3 4 4 5 5 5 5 5 5 5 5 6 6 6 7 7 7 8 7 7 7 6 6 6 7 6
8 8 8 8 8 8 7 7 6 6 6 7 7 6 6 5 5 5 5 5 5 5 4 5 5 4 4 5 5 6 6 6 6 7 7 6 6 5 5 5 5 4 4 4 3 4 5 5 5 5 5 6 6 6 6 7 7 7 8 8 8 8 8 7 7 7 8 8 8
7 8 8 8 8 8 8 7 7 6 7 7 7 7 7 6 5 5 5 5 5 5 5 5 4 4 4 5 5 5 5 5 5 5 6 6 6 6 6 5 5 5 5 5 4 4 4 5 5 5 5 6 6 6 7 7 7 8 8 8 8 8 8 8 8 8 9 9 9
7 7 7 7 8 8 8 8 7 7 8 8 8 7 7 7 6 6 5 5 5 5 5 5 5 4 4 5 4 4 4 4 5 5 5 5 6 6 6 5 5 5 5 5 5 5 4 4 4 4 5 5 5 6 6 7 7 8 8 8 8 8 8 9 9 9 9 10 10
7 7 7 7 7 7 7 8 8 8 8 8 7 7 7 8 8 7 7 6 5 5 5 5 5 4 4 4 4 4 4 4 5 5 5 5 5 6 6 6 5 5 5 5 6 6 5 5 5 4 4 5 5 5 5 6 6 7 7 8 8 8 8 8 9 9 9 10 10
7 7 7 7 7 7 7 7 7 7 7 7 7 8 8 8 8 8 8 7 7 6 6 5 5 5 4 4 4 4 4 4 5 5 6 5 5 5 5 5 5 5 5 5 6 6 6 5 5 5 5 5 5 5 5 5 5 6 6 7 7 7 7 8 8 9 9 10 10
6 6 6 6 6 6 6 6 6 6 7 7 7 8 8 8 8 8 8 8 8 7 6 6 6 5 5 5 5 5 4 4 5 5 6 5 5 5 5 5 6 6 6 5 6 6 6 6 5 5 5 5 5 5 5 5 5 6 6 6 6 7 7 7 8 8 9 9 10
5 5 5 6 6 6 6 6 6 6 7 7 7 7 7 7 8 8 8 8 7 7 6 6 6 6 6 5 5 5 5 4 5 5 5 5 5 5 5 5 5 5 5 5 6 6 6 6 6 6 6 6 6 6 5 5 5 6 6 6 7 7 7 8 8 8 8 9 9
6 5 5 5 5 6 6 6 6 6 6 6 7 7 7 7 7 7 7 7 6 6 7 6 6 6 6 6 5 5 5 5 5 5 6 6 6 6 5 5 5 5 5 5 5 5 5 6 6 6 6 6 6 6 6 6 6 6 6 6 7 7 7 8 8 8 8 8 9
8 7 6 5 6 6 6 6 6 6 6 6 7 7 7 7 7 7 7 7 7 7 7 7 6 6 6 6 5 5 5 5 5 6 6 6 6 6 6 6 5 5 5 5 5 5 6 5 5 5 5 5 6 6 6 6 6 6 6 6 7 7 7 7 8 8 8 9 8
9 9 8 7 7 6 6 6 6 6 6 6 7 7 7 7 7 7 7 7 7 8 8 8 7 6 6 5 5 5 5 5 5 6 6 6 6 6 6 5 5 5 5 5 8 9 9 8 7 5 5 5 5 5 6 6 7 7 7 7 7 7 7 7 7 8 8 8 8
9 9 9 8 8 7 7 7 7 7 7 7 7 7 7 7 7 7 7 8 8 8 8 8 7 6 5 5 5 5 5 5 5 5 6 6 6 6 6 5 5 5 5 6 9 11 12 13 11 9 7 5 5 5 5 5 6 6 7 7 7 7 7 7 7 7 7 7 8
10 9 9 9 9 8 8 8 7 7 7 7 7 7 7 7 7 7 8 8 8 8 8 7 6 6 6 4 4 5 5 5 5 6 6 6 7 7 6 6 5 5 5 8 11 12 13 13 14 12 10 6 5 5 5 5 5 6 6 6 6 7 7 7 7 7 7 7 7
9 9 10 10 9 9 9 8 8 8 8 8 8 7 7 7 8 8 8 9 9 8 7 6 6 5 4 4 4 5 5 6 6 6 6 6 7 7 6 6 5 6 7 10 12 13 14 14 14 14 12 9 6 5 5 5 5 5 5 5 6 6 7 7 7 7 6 6 6
10 10 10 10 10 9 9 9 9 9 8 8 8 8 8 8 8 8 8 9 9 8 7 6 6 5 5 5 6 6 6 6 6 6 6 6 7 7 6 6 6 7 9 12 13 14 14 14 14 14 14 12 8 5 5 5 5 5 5 5 5 5 6 6 6 6 6 6 6
10 9 10 10 10 10 9 9 9 9 9 8 8 9 9 9 9 8 8 8 8 8 7 6 6 6 7 8 7 7 7 6 6 6 6 7 6 7 7 7 6 7 9 11 13 14 14 14 14 14 14 14 10 7 5 6 6 6 5 5 5 6 6 6 6 6 6 6 6
10 10 10 10 10 10 9 9 9 9 9 9 9 9 9 9 9 8 8 7 7 8 8 7 8 8 9 8 8 7 7 7 7 6 6 7 8 8 7 7 7 7 8 11 13 14 14 14 14 14 14 14 10 7 6 6 6 6 6 6 6 7 7 6 6 7 7 6 6
10 10 10 10 10 10 10 9 9 9 9 9 10 10 10 10 9 8 7 7 7 8 8 7 8 8 8 9 8 8 8 8 8 8 7 7 8 7 7 7 7 7 9 11 13 14 14 14 14 14 14 14 11 8 7 7 7 7 7 8 8 8 8 7 7 7 7 7 7
9 9 10 10 11 11 10 10 10 10 10 10 10 10 10 10 9 9 8 7 7 7 7 7 8 8 8 8 8 8 9 9 9 9 9 8 8 7 7 8 6 7 9 11 12 13 13 13 13 13 13 14 11 9 7 7 7 7 7 8 9 9 9 9 8 8 8 8 8
9 9 10 10 10 11 11 11 10 10 10 10 10 10 10 9 9 9 8 7 7 6 7 7 7 7 7 7 8 8 9 9 9 9 8 8 8 8 7 7 6 7 9 11 12 13 13 13 13 13 13 13 10 8 7 8 7 8 8 9 9 9 9 9 9 9 9 9 8
9 9 10 10 10 11 11 11 11 11 11 11 11 11 10 9 9 9 9 8 8 7 7 7 7 7 7 8 7 8 9 10 9 9 8 8 8 8 8 7 6 8 11 13 14 14 14 14 14 13 13 12 8 7 6 8 8 8 9 10 10 10 10 10 10 10 10 9 9
9 9 10 10 10 11 11 11 12 12 12 12 12 12 11 10 9 8 8 9 8 8 8 7 7 7 7 8 8 8 9 9 9 9 9 8 7 7 8 8 7 9 11 13 14 15 15 15 15 14 13 10 7 6 6 7 7 8 9 10 11 11 11 11 10 10 10 10 10
9 9 10 10 11 11 11 11 11 12 12 13 12 12 12 11 10 9 8 8 8 8 8 8 8 8 8 8 8 9 9 9 9 9 9 9 8 8 8 8 8 9 10 12 14 15 16 16 16 15 12 8 6 5 6 6 6 7 9 10 10 11 11 10 10 10 10 10 10
10 10 10 11 11 11 11 11 11 12 12 13 12 11 11 11 10 10 9 8 8 9 9 8 9 9 9 9 10 10 10 9 9 9 9 9 8 8 8 9 8 8 9 11 13 15 16 17 17 16 14 9 6 6 6 6 6 7 8 9 9 9 9 9 9 9 10 11 11
10 10 10 11 11 11 12 12 12 12 12 13 12 12 12 11 10 10 10 9 9 9 9 9 10 10 10 10 10 10 10 10 9 9 9 9 9 9 9 10 9 9 9 11 14 15 17 17 18 18 16 12 8 6 6 6 7 8 8 8 8 9 9 8 8 8 9 11 12
11 11 11 11 11 11 12 12 12 12 12 12 12 12 12 11 11 11 11 10 9 9 10 10 11 12 12 11 11 11 11 10 9 9 9 9 10 11 11 11 10 10 10 12 15 16 18 18 19 19 17 13 9 7 6 6 7 8 9 8 8 8 8 8 8 8 8 9 11
10 10 11 11 11 11 12 12 13 12 12 12 12 12 11 11 11 11 11 10 10 10 10 11 12 13 13 12 11 11 11 12 11 10 10 10 10 11 11 11 11 11 11 12 15 17 18 19 20 20 18 14 10 8 7 7 7 9 9 9 8 8 8 8 8 8 8 9 9
Wind_Direction
6 5 2 355 351 347 344 338 333 331 331 335 338 340 343 344 343 342 342 342 344 344 341 338 335 339 351 18 11 356 351 353 359 17 38 57 63 67 67 64 63 61 60 60 57 51 41 31 27 25 28 32 39 37 29 19 30 50 74 89 103 113 117 119 120 120 119 118 116
5 4 1 357 354 354 353 349 342 340 341 342 342 342 343 344 342 341 340 341 341 341 339 335 330 331 335 347 350 341 340 353 1 9 19 37 48 58 63 65 65 64 63 61 60 58 51 39 37 35 34 36 53 54 44 25 28 43 59 70 85 103 117 125 129 127 123 117 114
2 1 1 360 0 2 2 358 352 349 349 349 347 345 343 342 340 337 335 332 331 332 332 328 323 324 326 330 329 324 323 340 1 1 1 19 44 54 58 63 67 68 68 65 62 57 49 36 36 37 34 30 54 65 65 43 39 44 50 50 57 71 89 110 123 128 129 127 128
3 2 1 1 360 0 0 358 353 351 351 350 347 344 342 338 334 329 324 320 322 323 323 317 316 319 325 328 325 321 318 317 321 322 327 2 67 73 71 70 72 75 76 76 71 65 55 46 41 34 23 17 32 54 67 64 55 51 47 39 48 54 60 71 88 106 120 129 135
3 3 2 359 358 356 355 353 351 350 350 350 347 344 339 334 328 322 318 318 317 315 311 310 312 316 319 323 318 316 316 315 310 304 297 294 132 126 120 111 103 97 95 94 90 83 76 68 62 44 23 7 8 23 52 75 69 61 50 40 50 57 59 58 60 71 90 109 121
2 1 0 359 357 356 354 352 350 349 349 350 345 340 333 328 324 322 321 320 316 314 312 312 312 314 315 314 309 308 310 313 313 309 302 288 213 170 162 158 145 137 128 122 114 107 100 94 87 72 49 25 3 3 17 50 63 67 60 51 60 69 73 70 67 69 78 97 112
359 359 359 358 357 356 354 350 349 348 348 348 344 337 330 324 322 322 323 324 323 323 322 320 316 313 311 311 308 303 298 297 298 299 298 299 274 210 183 173 162 155 152 147 138 131 125 121 115 108 98 78 32 9 7 14 23 33 45 87 94 99 103 106 97 95 103 120 133
358 358 358 357 356 354 351 348 349 350 351 350 348 344 339 335 332 329 328 330 329 327 325 324 318 311 306 306 306 302 297 289 284 281 283 287 278 250 204 181 169 165 163 158 158 156 153 146 143 141 138 129 114 56 24 21 16 3 338 302 109 132 137 137 128 131 141 155 164
359 358 356 355 354 353 351 349 350 352 354 355 356 355 353 350 346 344 341 339 333 330 329 328 322 317 310 303 299 298 296 292 285 279 271 265 260 243 216 195 183 177 171 166 168 171 170 168 163 159 157 154 154 145 126 91 60 1 315 305 306 228 175 167 155 157 163 172 182
358 356 355 354 353 353 353 352 353 355 358 359 0 0 360 358 358 356 354 349 343 340 337 333 329 325 318 309 297 289 285 285 283 279 271 262 252 237 219 202 193 189 184 178 178 178 180 181 178 175 170 163 162 160 157 151 157 179 223 271 277 257 227 207 182 175 176 182 189
356 355 354 353 351 352 354 355 356 358 1 1 1 360 359 360 2 1 359 355 351 346 342 339 336 332 327 319 309 295 279 272 272 272 269 265 256 245 230 213 199 193 191 187 183 183 186 192 191 189 185 178 169 167 167 169 176 185 197 214 228 233 231 226 212 198 191 190 194
354 353 352 351 350 352 354 356 357 359 1 1 359 357 355 355 358 359 358 357 353 348 345 343 341 338 335 330 324 315 300 278 268 265 264 262 258 251 242 231 212 200 193 190 187 189 195 200 200 198 195 191 183 178 177 179 186 193 199 203 207 212 217 220 220 217 213 206 205
351 351 350 350 350 352 354 354 355 356 358 357 356 354 351 350 353 354 355 355 352 350 347 345 343 340 337 335 332 328 322 311 296 282 271 265 260 255 250 244 229 213 201 194 192 196 202 208 207 204 202 199 196 191 186 186 192 197 202 204 205 208 210 211 213 218 223 225 223
350 350 350 349 351 352 353 353 352 352 352 352 350 348 348 347 349 350 351 351 350 348 345 342 341 338 336 335 333 332 330 327 322 314 303 292 283 275 267 260 247 231 215 202 198 201 207 214 214 212 210 207 206 201 195 193 198 202 205 206 207 209 209 208 206 209 216 224 229
349 349 349 349 351 352 353 351 349 347 346 345 343 343 343 345 346 346 347 347 346 344 342 339 336 334 332 331 331 331 331 330 329 325 320 315 310 303 295 286 276 261 241 219 206 205 209 215 217 217 216 215 212 208 204 202 205 207 209 210 210 210 209 207 204 205 209 215 222
348 348 348 348 350 351 351 350 346 343 342 339 338 338 339 341 341 343 345 344 340 338 337 335 332 329 327 326 326 326 325 325 325 324 321 318 315 309 304 297 292 286 276 259 233 215 209 212 216 218 219 219 216 213 209 207 209 211 213 213 212 210 209 208 205 206 207 209 213
346 346 347 347 348 348 348 347 343 341 338 335 335 335 335 336 337 339 341 339 335 333 331 328 328 326 325 323 322 319 316 314 314 314 312 310 307 304 299 294 291 289 286 282 272 252 228 213 213 215 217 220 220 217 213 210 211 213 214 215 213 212 210 209 208 208 209 209 210
343 343 344 344 344 345 344 342 340 337 335 333 332 332 332 333 334 334 333 332 330 328 326 325 324 324 322 320 318 315 311 306 304 302 301 300 298 296 293 289 287 284 283 282 280 274 262 241 227 220 219 222 223 221 217 213 213 214 215 217 216 214 211 210 210 210 210 211 211
338 339 339 339 338 338 338 338 336 333 331 329 328 328 329 330 330 330 329 327 326 324 323 321 320 318 315 312 310 308 306 302 299 297 295 293 292 291 289 287 285 283 281 279 277 275 272 264 254 244 236 232 231 228 225 219 217 216 217 218 219 218 216 213 212 211 212 212 212
332 333 333 331 330 330 331 331 329 327 326 324 325 325 326 326 327 327 325 322 321 320 320 318 315 311 307 302 301 299 298 296 295 294 293 292 291 290 289 287 285 282 279 276 275 273 270 267 263 258 253 248 243 240 236 232 226 222 220 221 222 222 221 218 216 214 213 212 213
327 326 325 322 321 321 322 322 321 320 319 319 320 321 321 322 323 321 319 316 317 316 315 313 310 307 303 298 293 289 286 285 287 288 289 290 290 290 289 290 287 284 280 276 275 273 270 267 262 260 258 256 252 249 246 243 238 232 227 225 225 224 224 223 220 218 215 213 213
322 321 318 316 313 313 313 314 315 315 315 315 316 317 317 318 316 314 313 312 313 312 310 307 305 303 300 295 287 281 275 274 275 277 281 285 286 287 289 291 290 287 284 281 278 276 273 270 265 261 258 257 256 254 251 249 248 244 239 233 229 226 224 223 223 222 220 217 215
321 319 317 313 310 310 311 311 312 312 312 313 314 314 314 313 310 309 309 310 310 307 304 301 300 299 297 294 287 280 273 269 267 267 269 272 276 279 281 283 284 283 281 279 276 273 271 269 266 262 258 256 254 254 253 253 253 252 249 245 239 233 228 224 223 222 222 222 219
323 321 319 316 314 312 312 313 314 314 314 314 314 313 312 309 308 308 307 307 305 302 300 299 297 296 295 294 291 285 278 271 267 265 264 263 264 266 268 270 270 269 269 269 266 264 262 262 260 257 254 252 251 251 251 251 253 253 253 252 250 245 238 231 225 223 223 223 222
324 323 321 320 318 317 317 318 317 316 316 315 314 313 312 311 311 310 309 307 303 301 299 298 297 296 295 295 294 290 285 278 271 267 264 262 259 257 257 259 260 260 260 261 261 261 260 260 258 254 249 245 245 246 247 247 248 249 250 251 251 251 249 244 236 230 225 223 223
323 323 322 321 320 320 320 319 317 316 315 314 315 315 314 314 314 313 312 309 305 302 300 299 298 298 298 297 298 297 294 287 279 273 268 264 260 255 252 251 252 253 254 254 256 258 259 261 261 259 255 246 243 242 244 244 242 242 244 245 247 248 250 250 247 240 233 228 225
323 322 321 320 321 321 320 318 317 316 316 315 315 314 314 315 317 316 315 312 309 306 304 302 299 299 299 300 302 301 299 295 290 282 275 269 264 258 252 248 247 248 249 250 253 255 257 259 260 260 259 253 247 244 244 244 242 241 241 242 242 243 244 247 248 246 242 236 230
319 319 318 319 320 319 318 318 319 318 316 315 313 313 313 315 316 315 314 312 311 311 310 307 304 302 302 303 301 298 295 294 292 288 282 276 270 263 257 252 248 247 247 249 253 255 257 258 259 260 259 257 252 248 246 247 247 246 245 243 242 242 242 243 244 245 244 241 235
315 315 316 317 317 316 317 318 318 316 314 313 313 313 314 315 314 313 312 312 312 313 312 310 308 308 307 304 299 296 294 291 288 286 283 279 275 270 264 258 253 250 250 251 254 256 258 258 259 259 258 257 255 250 247 247 248 249 249 248 246 244 242 242 242 242 241 241 237
313 314 314 313 313 313 314 314 313 313 313 313 314 314 314 314 313 311 310 310 309 308 307 306 307 306 305 302 300 298 296 292 289 286 283 280 276 272 268 263 259 256 255 255 258 259 259 258 257 257 257 256 255 253 249 248 248 248 249 250 248 247 246 246 244 242 241 240 239
312 312 311 311 310 310 309 309 310 311 312 313 314 314 313 312 310 309 307 305 303 302 301 301 301 300 299 299 299 298 296 294 292 289 285 282 280 276 272 268 264 263 263 264 266 265 264 261 258 256 254 253 252 250 248 248 248 248 248 248 248 247 248 249 247 244 242 240 239
310 310 310 310 309 308 308 308 309 310 310 311 310 310 309 308 306 304 302 300 300 300 300 300 299 298 298 298 297 296 295 294 292 289 286 283 282 280 277 274 268 266 266 267 270 270 270 266 261 256 252 249 248 246 244 246 247 248 249 249 248 248 247 249 249 247 245 241 239
308 309 309 308 308 308 308 309 309 309 309 308 307 306 305 304 303 302 301 300 298 297 297 296 296 295 294 295 294 293 291 289 288 287 285 284 283 283 283 281 276 272 270 270 272 272 272 270 265 260 254 248 247 243 241 242 245 247 248 249 248 247 247 246 247 247 246 244 241
307 307 307 307 307 308 309 309 310 309 309 307 305 303 302 301 301 301 301 299 297 294 292 291 290 289 288 287 288 288 287 286 285 284 284 284 285 285 286 286 285 284 283 282 281 279 276 273 268 264 258 252 248 242 238 239 243 246 248 249 249 248 247 245 245 245 244 243 242
305 305 306 306 306 307 307 308 309 309 308 307 305 303 301 299 298 298 297 297 295 293 290 288 286 285 284 284 283 283 284 284 283 282 281 282 283 284 285 285 286 288 290 291 290 288 285 280 275 268 262 255 249 241 237 238 241 244 246 249 250 250 249 248 247 245 243 241 240
302 302 303 303 303 304 304 305 306 306 306 305 304 303 302 300 298 296 295 295 295 292 290 288 286 285 284 283 282 281 280 280 281 280 279 279 280 280 281 281 282 285 288 290 291 291 290 287 283 276 269 259 249 239 236 238 242 244 246 248 250 250 250 250 249 247 245 242 238
299 299 299 299 299 300 300 301 301 302 302 301 301 301 301 300 299 297 296 296 294 292 290 288 286 284 282 281 280 277 275 275 277 278 278 277 276 276 277 278 277 278 281 283 285 287 288 288 287 284 278 267 252 241 238 238 242 244 246 248 249 249 249 250 250 248 246 243 239
296 296 296 296 296 295 296 296 296 296 296 296 297 297 298 299 298 297 296 296 293 291 289 288 285 283 280 279 278 275 273 271 271 273 274 275 273 273 274 275 274 273 274 276 279 281 283 284 285 285 283 275 260 246 241 240 242 244 246 248 249 249 248 248 248 248 246 243 238
294 293 293 292 292 292 292 291 290 290 290 291 292 293 294 295 295 294 294 293 290 288 288 287 284 282 281 280 279 277 274 271 269 269 270 272 271 270 271 271 271 270 270 271 274 275 277 278 279 279 279 275 266 255 246 243 244 245 246 247 250 249 248 247 247 247 246 244 239
292 291 290 289 289 288 288 288 287 286 286 287 288 289 290 291 290 291 291 291 288 287 286 285 284 283 282 282 281 279 278 275 272 269 268 269 269 270 270 269 270 270 269 269 270 271 272 272 272 272 272 271 266 259 252 246 246 246 246 246 248 249 249 247 246 246 246 245 240
290 290 289 287 287 286 286 286 285 285 284 284 284 284 285 286 287 288 288 288 286 286 285 285 285 284 284 284 282 281 280 279 275 272 270 269 270 270 269 269 269 268 267 266 266 267 268 268 268 267 266 265 262 258 253 249 248 247 246 246 245 247 248 248 247 246 245 244 242